This is the latest recevied weather packets stored in our database for station/object K7CTM. If no packets are shown the sender has not sent any weather packets the latest 10 day(s).
| Time | Temp. | Humidity | Pressure | Rain* | Wind** | Luminosity | Snow |
|---|---|---|---|---|---|---|---|
| 1777980583 | -1.11° C | 75% | 1027.1 hPa | 0 mm | - | 0 W/m² | - |
| 1777980282 | -1.11° C | 76% | 1027.2 hPa | 0 mm | - | 0 W/m² | - |
| 1777979978 | -1.11° C | 75% | 1027.1 hPa | 0 mm | - | 0 W/m² | - |
| 1777979678 | -1.11° C | 74% | 1026.9 hPa | 0 mm | - | 0 W/m² | - |
| 1777979374 | -1.11° C | 74% | 1027.1 hPa | 0 mm | - | 0 W/m² | - |
| 1777979071 | -1.11° C | 74% | 1026.9 hPa | 0 mm | - | 0 W/m² | - |
| 1777978768 | -1.11° C | 74% | 1026.9 hPa | 0 mm | - | 0 W/m² | - |
| 1777978465 | -0.56° C | 72% | 1026.9 hPa | 0 mm | - | 0 W/m² | - |
| 1777978161 | -0.56° C | 72% | 1027 hPa | 0 mm | - | 0 W/m² | - |
| 1777977858 | 0° C | 71% | 1026.8 hPa | 0 mm | - | 0 W/m² | - |
| 1777977554 | 0° C | 69% | 1026.9 hPa | 0 mm | - | 0 W/m² | - |
| 1777977252 | 0° C | 69% | 1027 hPa | 0 mm | - | 0 W/m² | - |
| 1777976949 | 0° C | 70% | 1027 hPa | 0 mm | - | 0 W/m² | - |
| 1777976646 | -0.56° C | 71% | 1027 hPa | 0 mm | - | 0 W/m² | - |
| 1777976342 | -0.56° C | 72% | 1026.8 hPa | 0 mm | - | 0 W/m² | - |
| 1777976037 | 0° C | 71% | 1027 hPa | 0 mm | - | 0 W/m² | - |
| 1777975733 | 0° C | 70% | 1026.9 hPa | 0 mm | - | 0 W/m² | - |
| 1777975430 | 0.56° C | 69% | 1026.9 hPa | 0 mm | - | 0 W/m² | - |
| 1777975125 | 0.56° C | 67% | 1026.6 hPa | 0 mm | - | 0 W/m² | - |
| 1777974823 | 1.11° C | 65% | 1026.9 hPa | 0 mm | - | 0 W/m² | - |
| 1777974519 | 1.11° C | 64% | 1026.9 hPa | 0 mm | - | 0 W/m² | - |
| 1777974216 | 1.11° C | 65% | 1026.5 hPa | 0 mm | - | 0 W/m² | - |
| 1777973911 | 1.67° C | 64% | 1026.8 hPa | 0 mm | - | 0 W/m² | - |
| 1777973609 | 1.67° C | 64% | 1026.6 hPa | 0 mm | - | 0 W/m² | - |
| 1777973306 | 1.11° C | 66% | 1026.9 hPa | 0 mm | - | 0 W/m² | - |
* Rain latest hour (hover to see other rain measurements)
** Current wind speed in m/s (hover to see current wind gust speed)